CFNTH CYQB-CYVO

Flight info

Callsign CFNTH
Flight time 1h 36m
Altitude 12000
Route IMORI UDBAM DICEN BERUT
Aircraft SH33/M-SDFGRY/S

Departure

Time 2026-04-20 12:42
Airport Quebec Jean Lesage International Airport (CYQB)

Arrival

Time 2026-04-20 14:19
Airport Val-d'Or Airport (CYVO)
Time Latitude Longitude Altitude Speed Heading
2026-04-20 11:16 46.78998 -71.38364 237 ft 0 kts 351°
2026-04-20 12:33 46.78999 -71.38364 211 ft 0 kts 351°
2026-04-20 12:36 46.79000 -71.38364 211 ft 1 kts 345°
2026-04-20 12:37 46.78976 -71.38392 248 ft 13 kts 202°
2026-04-20 12:37 46.78972 -71.38545 248 ft 16 kts 327°
2026-04-20 12:37 46.79064 -71.38620 248 ft 15 kts 340°
2026-04-20 12:37 46.79166 -71.38602 248 ft 15 kts 11°
2026-04-20 12:38 46.79275 -71.38573 248 ft 16 kts 11°
2026-04-20 12:38 46.79390 -71.38513 248 ft 20 kts 45°
2026-04-20 12:38 46.79495 -71.38362 248 ft 19 kts 45°
2026-04-20 12:38 46.79590 -71.38281 248 ft 15 kts 39°
2026-04-20 12:39 46.79752 -71.38057 248 ft 11 kts 28°
2026-04-20 12:39 46.79822 -71.38045 248 ft 10 kts
2026-04-20 12:39 46.79900 -71.38043 248 ft 12 kts
2026-04-20 12:40 46.79972 -71.38082 248 ft 13 kts 313°
2026-04-20 12:40 46.79979 -71.38138 248 ft 0 kts 226°
2026-04-20 12:41 46.79951 -71.38179 248 ft 33 kts 224°
2026-04-20 12:41 46.79597 -71.38677 248 ft 100 kts 227°
2026-04-20 12:41 46.79066 -71.39487 447 ft 120 kts 221°
2026-04-20 12:42 46.78369 -71.40369 567 ft 147 kts 225°
2026-04-20 12:42 46.77595 -71.41398 883 ft 150 kts 226°
2026-04-20 12:42 46.76825 -71.42408 1325 ft 148 kts 226°
2026-04-20 12:42 46.76052 -71.43395 1744 ft 148 kts 226°
2026-04-20 12:43 46.75274 -71.44384 2222 ft 148 kts 226°
2026-04-20 12:43 46.74493 -71.45383 2778 ft 150 kts 225°
2026-04-20 12:43 46.73707 -71.46355 3187 ft 151 kts 225°
2026-04-20 12:43 46.72913 -71.47355 3609 ft 150 kts 227°
2026-04-20 12:44 46.72125 -71.48347 3990 ft 150 kts 226°
2026-04-20 12:44 46.71332 -71.49325 4369 ft 149 kts 225°
2026-04-20 12:44 46.70552 -71.50311 4730 ft 146 kts 234°
2026-04-20 12:44 46.70288 -71.51646 5074 ft 137 kts 283°
2026-04-20 12:45 46.70566 -71.52949 5434 ft 135 kts 281°
2026-04-20 12:45 46.70702 -71.54297 5797 ft 134 kts 278°
2026-04-20 12:45 46.70845 -71.55631 6165 ft 133 kts 278°
2026-04-20 12:45 46.70996 -71.56947 6545 ft 130 kts 278°
2026-04-20 12:46 46.71168 -71.58172 6826 ft 132 kts 278°
2026-04-20 12:46 46.71303 -71.59467 7180 ft 132 kts 276°
2026-04-20 12:46 46.71447 -71.60790 7510 ft 132 kts 277°
2026-04-20 12:46 46.71599 -71.62115 7839 ft 133 kts 277°
2026-04-20 12:47 46.71748 -71.63442 8190 ft 133 kts 277°
2026-04-20 12:47 46.71899 -71.64766 8527 ft 134 kts 277°
2026-04-20 12:47 46.72053 -71.66110 8860 ft 134 kts 276°
2026-04-20 12:47 46.72206 -71.67456 9182 ft 135 kts 276°
2026-04-20 12:48 46.72362 -71.68812 9512 ft 136 kts 276°
2026-04-20 12:48 46.72518 -71.70176 9835 ft 136 kts 276°
2026-04-20 12:48 46.72675 -71.71544 10139 ft 137 kts 276°
2026-04-20 12:48 46.72830 -71.72922 10383 ft 139 kts 276°
2026-04-20 12:49 46.72987 -71.74298 10686 ft 139 kts 276°
2026-04-20 12:49 46.73146 -71.75695 10970 ft 140 kts 276°
2026-04-20 12:49 46.73305 -71.77107 11317 ft 141 kts 276°
2026-04-20 12:49 46.73466 -71.78519 11632 ft 143 kts 276°
2026-04-20 12:50 46.73629 -71.79948 12020 ft 144 kts 276°
2026-04-20 12:50 46.73798 -71.81472 12022 ft 159 kts 277°
2026-04-20 12:50 46.73984 -71.83111 12018 ft 168 kts 277°
2026-04-20 12:50 46.74179 -71.84824 12020 ft 174 kts 277°
2026-04-20 12:51 46.74377 -71.86578 12015 ft 177 kts 277°
2026-04-20 12:51 46.74577 -71.88360 12006 ft 179 kts 277°
2026-04-20 12:51 46.74778 -71.90155 12015 ft 180 kts 277°
2026-04-20 12:51 46.74979 -71.91937 12010 ft 181 kts 277°
2026-04-20 12:52 46.75183 -71.93750 12007 ft 181 kts 277°
2026-04-20 12:52 46.75386 -71.95564 12006 ft 181 kts 277°
2026-04-20 12:52 46.75588 -71.97383 12011 ft 181 kts 277°
2026-04-20 12:52 46.75813 -71.99196 12005 ft 181 kts 279°
2026-04-20 12:53 46.76079 -72.00995 12013 ft 182 kts 279°
2026-04-20 12:53 46.76339 -72.02798 12018 ft 182 kts 279°
2026-04-20 12:53 46.76595 -72.04607 12011 ft 182 kts 279°
2026-04-20 12:53 46.76850 -72.06414 12008 ft 182 kts 279°
2026-04-20 12:54 46.77106 -72.08220 12015 ft 182 kts 279°
2026-04-20 12:54 46.77362 -72.10031 12012 ft 182 kts 279°
2026-04-20 12:54 46.77614 -72.11818 12014 ft 182 kts 279°
2026-04-20 12:54 46.77869 -72.13623 12018 ft 182 kts 279°
2026-04-20 12:55 46.78124 -72.15434 12014 ft 182 kts 279°
2026-04-20 12:55 46.78379 -72.17246 12013 ft 182 kts 279°
2026-04-20 12:55 46.78634 -72.19059 12011 ft 182 kts 279°
2026-04-20 12:55 46.78892 -72.20889 11949 ft 184 kts 279°
2026-04-20 12:56 46.79149 -72.22717 11929 ft 184 kts 279°
2026-04-20 12:56 46.79403 -72.24540 11939 ft 183 kts 279°
2026-04-20 12:56 46.79659 -72.26366 11935 ft 183 kts 279°
2026-04-20 12:56 46.79921 -72.28184 11929 ft 183 kts 282°
2026-04-20 12:57 46.80585 -72.29785 11930 ft 190 kts 307°
2026-04-20 12:57 46.81568 -72.31085 11931 ft 190 kts 310°
2026-04-20 12:57 46.82483 -72.32466 11931 ft 189 kts 307°
2026-04-20 12:57 46.83382 -72.33837 11942 ft 190 kts 308°
2026-04-20 12:58 46.84315 -72.35205 11942 ft 190 kts 309°
2026-04-20 12:58 46.85252 -72.36572 11945 ft 190 kts 309°
2026-04-20 12:58 46.86185 -72.37941 11950 ft 190 kts 309°
2026-04-20 12:58 46.87120 -72.39316 11946 ft 191 kts 309°
2026-04-20 12:59 46.88059 -72.40698 11953 ft 191 kts 309°
2026-04-20 12:59 46.89000 -72.42081 11955 ft 192 kts 309°
2026-04-20 12:59 46.89944 -72.43470 11944 ft 192 kts 309°
2026-04-20 12:59 46.90889 -72.44860 11946 ft 192 kts 309°
2026-04-20 13:00 46.91828 -72.46243 11949 ft 191 kts 309°
2026-04-20 13:00 46.92765 -72.47624 11940 ft 191 kts 309°
2026-04-20 13:00 46.93588 -72.49103 11928 ft 184 kts 291°
2026-04-20 13:00 46.93978 -72.50852 11955 ft 181 kts 283°
2026-04-20 13:01 46.94386 -72.52583 11950 ft 183 kts 287°
2026-04-20 13:01 46.94832 -72.54350 11955 ft 183 kts 287°
2026-04-20 13:01 46.95251 -72.56088 11955 ft 184 kts 286°
2026-04-20 13:01 46.95672 -72.57866 11956 ft 186 kts 286°
2026-04-20 13:02 46.96096 -72.59651 11956 ft 185 kts 286°
2026-04-20 13:02 46.96519 -72.61431 11957 ft 185 kts 286°
2026-04-20 13:02 46.96942 -72.63208 11960 ft 185 kts 286°
2026-04-20 13:02 46.97363 -72.64980 11954 ft 184 kts 286°
2026-04-20 13:03 46.97784 -72.66759 11959 ft 185 kts 286°
2026-04-20 13:03 46.98206 -72.68536 11961 ft 185 kts 286°
2026-04-20 13:03 46.98626 -72.70302 11948 ft 186 kts 286°
2026-04-20 13:03 46.99047 -72.72089 11957 ft 186 kts 286°
2026-04-20 13:04 46.99470 -72.73874 12000 ft 183 kts 286°
2026-04-20 13:04 46.99888 -72.75643 11999 ft 184 kts 286°
2026-04-20 13:04 47.00306 -72.77416 12002 ft 184 kts 286°
2026-04-20 13:04 47.00724 -72.79190 12003 ft 185 kts 286°
2026-04-20 13:05 47.01142 -72.80966 12005 ft 184 kts 286°
2026-04-20 13:05 47.01562 -72.82743 12007 ft 185 kts 286°
2026-04-20 13:05 47.01981 -72.84520 12009 ft 185 kts 286°
2026-04-20 13:05 47.02399 -72.86302 12011 ft 185 kts 286°
2026-04-20 13:06 47.02814 -72.88066 12015 ft 185 kts 286°
2026-04-20 13:06 47.03233 -72.89854 12015 ft 185 kts 286°
2026-04-20 13:06 47.03652 -72.91644 12015 ft 186 kts 287°
2026-04-20 13:06 47.04073 -72.93438 12011 ft 186 kts 286°
2026-04-20 13:07 47.04496 -72.95234 12010 ft 186 kts 287°
2026-04-20 13:07 47.04914 -72.97024 12015 ft 186 kts 286°
2026-04-20 13:07 47.05193 -72.98220 12014 ft 187 kts 287°
2026-04-20 13:07 47.05617 -73.00033 12019 ft 187 kts 287°
2026-04-20 13:08 47.06174 -73.02416 12009 ft 185 kts 287°
2026-04-20 13:08 47.06590 -73.04203 12002 ft 185 kts 287°
2026-04-20 13:08 47.06870 -73.05408 12003 ft 185 kts 287°
2026-04-20 13:08 47.07284 -73.07191 11993 ft 185 kts 287°
2026-04-20 13:09 47.07695 -73.08956 11996 ft 184 kts 287°
2026-04-20 13:09 47.08108 -73.10728 12006 ft 183 kts 287°
2026-04-20 13:09 47.08521 -73.12503 12002 ft 184 kts 287°
2026-04-20 13:09 47.08934 -73.14280 11993 ft 184 kts 287°
2026-04-20 13:10 47.09346 -73.16055 12008 ft 184 kts 287°
2026-04-20 13:10 47.09757 -73.17831 12001 ft 184 kts 287°
2026-04-20 13:10 47.10169 -73.19614 12010 ft 184 kts 287°
2026-04-20 13:10 47.10581 -73.21394 11999 ft 185 kts 287°
2026-04-20 13:11 47.10995 -73.23183 12007 ft 185 kts 287°
2026-04-20 13:11 47.11408 -73.24969 12004 ft 184 kts 287°
2026-04-20 13:11 47.11819 -73.26753 11999 ft 184 kts 287°
2026-04-20 13:11 47.12229 -73.28532 12002 ft 184 kts 287°
2026-04-20 13:12 47.12634 -73.30286 11992 ft 183 kts 287°
2026-04-20 13:12 47.13041 -73.32066 11998 ft 184 kts 287°
2026-04-20 13:12 47.13451 -73.33844 12000 ft 184 kts 288°
2026-04-20 13:12 47.13862 -73.35620 11994 ft 184 kts 288°
2026-04-20 13:13 47.14270 -73.37397 11995 ft 184 kts 288°
2026-04-20 13:13 47.14677 -73.39175 12003 ft 183 kts 288°
2026-04-20 13:13 47.15084 -73.40954 12005 ft 184 kts 288°
2026-04-20 13:13 47.15493 -73.42733 11992 ft 183 kts 288°
2026-04-20 13:14 47.15899 -73.44509 12005 ft 183 kts 288°
2026-04-20 13:14 47.16305 -73.46284 12002 ft 183 kts 288°
2026-04-20 13:14 47.16710 -73.48059 12006 ft 183 kts 288°
2026-04-20 13:14 47.17115 -73.49835 12005 ft 183 kts 288°
2026-04-20 13:15 47.17523 -73.51618 12000 ft 184 kts 288°
2026-04-20 13:15 47.17929 -73.53400 12000 ft 184 kts 288°
2026-04-20 13:15 47.18330 -73.55160 12000 ft 184 kts 288°
2026-04-20 13:15 47.18735 -73.56942 12001 ft 184 kts 288°
2026-04-20 13:16 47.19140 -73.58722 12003 ft 184 kts 288°
2026-04-20 13:16 47.19541 -73.60500 12002 ft 183 kts 288°
2026-04-20 13:16 47.19948 -73.62284 12007 ft 184 kts 289°
2026-04-20 13:16 47.20356 -73.64071 12005 ft 184 kts 288°
2026-04-20 13:17 47.20760 -73.65858 11998 ft 184 kts 288°
2026-04-20 13:17 47.21165 -73.67647 12005 ft 185 kts 289°
2026-04-20 13:17 47.21571 -73.69442 12002 ft 184 kts 289°
2026-04-20 13:17 47.21975 -73.71233 12011 ft 185 kts 289°
2026-04-20 13:18 47.22381 -73.73032 12011 ft 185 kts 289°
2026-04-20 13:18 47.22786 -73.74824 12009 ft 185 kts 289°
2026-04-20 13:18 47.23187 -73.76601 12006 ft 185 kts 289°
2026-04-20 13:18 47.23591 -73.78403 12017 ft 185 kts 289°
2026-04-20 13:19 47.23998 -73.80202 12000 ft 185 kts 289°
2026-04-20 13:19 47.24405 -73.82004 12007 ft 186 kts 289°
2026-04-20 13:19 47.24809 -73.83805 11999 ft 185 kts 289°
2026-04-20 13:19 47.25211 -73.85607 11998 ft 185 kts 289°
2026-04-20 13:20 47.25614 -73.87403 12013 ft 185 kts 289°
2026-04-20 13:20 47.26019 -73.89204 12008 ft 185 kts 289°
2026-04-20 13:20 47.26423 -73.91005 12006 ft 185 kts 289°
2026-04-20 13:20 47.26825 -73.92803 12001 ft 185 kts 289°
2026-04-20 13:21 47.27226 -73.94601 12006 ft 185 kts 289°
2026-04-20 13:21 47.27628 -73.96400 12001 ft 185 kts 289°
2026-04-20 13:21 47.28029 -73.98194 12010 ft 185 kts 289°
2026-04-20 13:21 47.28432 -73.99995 12008 ft 185 kts 289°
2026-04-20 13:22 47.28830 -74.01796 12008 ft 184 kts 289°
2026-04-20 13:22 47.29224 -74.03564 12009 ft 184 kts 289°
2026-04-20 13:22 47.29625 -74.05358 11999 ft 184 kts 289°
2026-04-20 13:22 47.30025 -74.07156 12009 ft 184 kts 289°
2026-04-20 13:23 47.30421 -74.08945 12010 ft 184 kts 289°
2026-04-20 13:23 47.30818 -74.10734 11996 ft 184 kts 289°
2026-04-20 13:23 47.31218 -74.12536 12000 ft 184 kts 289°
2026-04-20 13:23 47.31615 -74.14327 12001 ft 184 kts 290°
2026-04-20 13:24 47.32011 -74.16120 12009 ft 184 kts 289°
2026-04-20 13:24 47.32407 -74.17915 12008 ft 184 kts 290°
2026-04-20 13:24 47.32806 -74.19716 12008 ft 185 kts 290°
2026-04-20 13:24 47.33204 -74.21515 12011 ft 185 kts 289°
2026-04-20 13:25 47.33600 -74.23314 12012 ft 185 kts 289°
2026-04-20 13:25 47.33997 -74.25117 12009 ft 185 kts 289°
2026-04-20 13:25 47.34393 -74.26918 12000 ft 185 kts 289°
2026-04-20 13:25 47.34784 -74.28693 11996 ft 184 kts 290°
2026-04-20 13:26 47.35179 -74.30493 12001 ft 184 kts 290°
2026-04-20 13:26 47.35574 -74.32289 12005 ft 184 kts 290°
2026-04-20 13:26 47.35970 -74.34091 12001 ft 184 kts 290°
2026-04-20 13:26 47.36365 -74.35891 12000 ft 184 kts 290°
2026-04-20 13:27 47.36757 -74.37688 12010 ft 184 kts 290°
2026-04-20 13:27 47.37151 -74.39485 12002 ft 184 kts 290°
2026-04-20 13:27 47.37544 -74.41281 12008 ft 184 kts 290°
2026-04-20 13:27 47.37936 -74.43080 12011 ft 184 kts 290°
2026-04-20 13:28 47.38330 -74.44882 12009 ft 184 kts 290°
2026-04-20 13:28 47.38723 -74.46684 12008 ft 184 kts 290°
2026-04-20 13:28 47.39115 -74.48485 12006 ft 184 kts 290°
2026-04-20 13:28 47.39507 -74.50282 12006 ft 184 kts 290°
2026-04-20 13:29 47.39893 -74.52061 12009 ft 184 kts 290°
2026-04-20 13:29 47.40284 -74.53859 12004 ft 184 kts 290°
2026-04-20 13:29 47.40675 -74.55661 12006 ft 184 kts 290°
2026-04-20 13:29 47.41067 -74.57462 12008 ft 184 kts 290°
2026-04-20 13:30 47.41456 -74.59263 12011 ft 184 kts 290°
2026-04-20 13:30 47.41847 -74.61068 12015 ft 184 kts 290°
2026-04-20 13:30 47.42237 -74.62869 12013 ft 184 kts 290°
2026-04-20 13:30 47.42627 -74.64670 12017 ft 184 kts 290°
2026-04-20 13:31 47.43018 -74.66481 12015 ft 185 kts 290°
2026-04-20 13:31 47.43404 -74.68267 12015 ft 185 kts 290°
2026-04-20 13:31 47.43793 -74.70074 12012 ft 185 kts 290°
2026-04-20 13:31 47.44183 -74.71886 12020 ft 185 kts 290°
2026-04-20 13:32 47.44574 -74.73701 12018 ft 185 kts 290°
2026-04-20 13:32 47.44965 -74.75520 12016 ft 185 kts 290°
2026-04-20 13:32 47.45356 -74.77337 12011 ft 185 kts 290°
2026-04-20 13:32 47.45745 -74.79148 12016 ft 184 kts 290°
2026-04-20 13:33 47.46133 -74.80960 12013 ft 185 kts 290°
2026-04-20 13:33 47.46516 -74.82747 12017 ft 185 kts 290°
2026-04-20 13:33 47.46904 -74.84561 12017 ft 185 kts 290°
2026-04-20 13:33 47.47292 -74.86373 11999 ft 186 kts 290°
2026-04-20 13:34 47.47681 -74.88191 12002 ft 185 kts 290°
2026-04-20 13:34 47.48069 -74.90007 12003 ft 185 kts 290°
2026-04-20 13:34 47.48457 -74.91826 12002 ft 185 kts 290°
2026-04-20 13:34 47.48845 -74.93646 12000 ft 185 kts 290°
2026-04-20 13:35 47.49231 -74.95465 12001 ft 185 kts 290°
2026-04-20 13:35 47.49619 -74.97282 12000 ft 185 kts 290°
2026-04-20 13:35 47.50006 -74.99100 12005 ft 185 kts 290°
2026-04-20 13:35 47.50391 -75.00919 12002 ft 185 kts 290°
2026-04-20 13:36 47.50772 -75.02713 12006 ft 185 kts 290°
2026-04-20 13:36 47.51157 -75.04529 12002 ft 185 kts 290°
2026-04-20 13:36 47.51542 -75.06345 12004 ft 185 kts 290°
2026-04-20 13:36 47.51931 -75.08187 11997 ft 185 kts 290°
2026-04-20 13:37 47.52307 -75.09981 11997 ft 185 kts 288°
2026-04-20 13:37 47.52608 -75.11841 11927 ft 188 kts 286°
2026-04-20 13:37 47.52924 -75.13748 11793 ft 192 kts 287°
2026-04-20 13:37 47.53247 -75.15684 11642 ft 195 kts 287°
2026-04-20 13:38 47.53573 -75.17638 11491 ft 197 kts 287°
2026-04-20 13:38 47.53899 -75.19608 11341 ft 198 kts 286°
2026-04-20 13:38 47.54225 -75.21584 11181 ft 198 kts 286°
2026-04-20 13:38 47.54552 -75.23564 11030 ft 198 kts 286°
2026-04-20 13:39 47.54879 -75.25548 10870 ft 198 kts 286°
2026-04-20 13:39 47.55206 -75.27533 10712 ft 198 kts 286°
2026-04-20 13:39 47.55531 -75.29513 10551 ft 198 kts 286°
2026-04-20 13:39 47.55856 -75.31496 10406 ft 198 kts 287°
2026-04-20 13:40 47.56179 -75.33452 10262 ft 198 kts 286°
2026-04-20 13:40 47.56504 -75.35435 10106 ft 198 kts 286°
2026-04-20 13:40 47.56828 -75.37417 9933 ft 198 kts 286°
2026-04-20 13:40 47.57151 -75.39398 9753 ft 198 kts 286°
2026-04-20 13:41 47.57475 -75.41378 9591 ft 198 kts 286°
2026-04-20 13:41 47.57798 -75.43352 9420 ft 197 kts 286°
2026-04-20 13:41 47.58119 -75.45324 9249 ft 197 kts 286°
2026-04-20 13:41 47.58439 -75.47298 9084 ft 197 kts 286°
2026-04-20 13:42 47.58761 -75.49267 8914 ft 196 kts 286°
2026-04-20 13:42 47.59399 -75.53202 8571 ft 196 kts 286°
2026-04-20 13:42 47.59718 -75.55168 8420 ft 196 kts 286°
2026-04-20 13:43 47.60036 -75.57134 8251 ft 196 kts 286°
2026-04-20 13:43 47.60350 -75.59082 8091 ft 196 kts 286°
2026-04-20 13:43 47.60668 -75.61046 7920 ft 196 kts 286°
2026-04-20 13:43 47.60986 -75.63015 7763 ft 196 kts 286°
2026-04-20 13:44 47.61300 -75.64975 7601 ft 195 kts 286°
2026-04-20 13:44 47.61615 -75.66926 7437 ft 195 kts 286°
2026-04-20 13:44 47.61929 -75.68883 7286 ft 195 kts 286°
2026-04-20 13:44 47.62242 -75.70834 7122 ft 194 kts 286°
2026-04-20 13:45 47.62556 -75.72781 6966 ft 194 kts 286°
2026-04-20 13:45 47.62867 -75.74729 6805 ft 194 kts 285°
2026-04-20 13:45 47.63177 -75.76674 6653 ft 193 kts 285°
2026-04-20 13:45 47.63487 -75.78610 6479 ft 193 kts 285°
2026-04-20 13:46 47.63796 -75.80543 6310 ft 192 kts 285°
2026-04-20 13:46 47.64103 -75.82474 6143 ft 192 kts 285°
2026-04-20 13:46 47.64410 -75.84400 5969 ft 192 kts 285°
2026-04-20 13:46 47.64716 -75.86327 5805 ft 191 kts 285°
2026-04-20 13:47 47.65017 -75.88221 5641 ft 190 kts 285°
2026-04-20 13:47 47.65320 -75.90132 5475 ft 190 kts 285°
2026-04-20 13:47 47.65624 -75.92043 5311 ft 190 kts 285°
2026-04-20 13:47 47.65926 -75.93956 5151 ft 190 kts 285°
2026-04-20 13:48 47.66227 -75.95863 4992 ft 190 kts 284°
2026-04-20 13:48 47.66529 -75.97775 4820 ft 190 kts 284°
2026-04-20 13:48 47.66831 -75.99686 4644 ft 190 kts 285°
2026-04-20 13:48 47.67131 -76.01592 4476 ft 189 kts 284°
2026-04-20 13:49 47.67428 -76.03487 4311 ft 189 kts 284°
2026-04-20 13:49 47.67727 -76.05384 4139 ft 188 kts 284°
2026-04-20 13:49 47.68024 -76.07279 3980 ft 189 kts 284°
2026-04-20 13:49 47.68321 -76.09177 3813 ft 188 kts 284°
2026-04-20 13:50 47.68619 -76.11072 3651 ft 188 kts 284°
2026-04-20 13:50 47.68912 -76.12937 3525 ft 186 kts 284°
2026-04-20 13:50 47.69197 -76.14781 3508 ft 182 kts 284°
2026-04-20 13:50 47.69480 -76.16591 3530 ft 178 kts 284°
2026-04-20 13:51 47.69760 -76.18378 3521 ft 177 kts 284°
2026-04-20 13:51 47.70038 -76.20160 3529 ft 177 kts 284°
2026-04-20 13:51 47.70314 -76.21941 3526 ft 176 kts 284°
2026-04-20 13:51 47.70591 -76.23717 3528 ft 177 kts 284°
2026-04-20 13:52 47.70868 -76.25500 3518 ft 177 kts 284°
2026-04-20 13:52 47.71142 -76.27273 3525 ft 176 kts 284°
2026-04-20 13:52 47.71416 -76.29043 3524 ft 176 kts 284°
2026-04-20 13:52 47.71691 -76.30813 3530 ft 176 kts 284°
2026-04-20 13:53 47.71964 -76.32585 3529 ft 175 kts 284°
2026-04-20 13:53 47.72231 -76.34328 3531 ft 175 kts 284°
2026-04-20 13:53 47.72503 -76.36086 3528 ft 175 kts 284°
2026-04-20 13:53 47.72777 -76.37851 3534 ft 175 kts 284°
2026-04-20 13:54 47.73050 -76.39625 3528 ft 176 kts 284°
2026-04-20 13:54 47.73321 -76.41395 3531 ft 175 kts 284°
2026-04-20 13:54 47.73593 -76.43168 3543 ft 177 kts 284°
2026-04-20 13:54 47.73864 -76.44942 3532 ft 176 kts 284°
2026-04-20 13:55 47.74135 -76.46711 3532 ft 176 kts 284°
2026-04-20 13:55 47.74407 -76.48483 3538 ft 176 kts 284°
2026-04-20 13:55 47.74678 -76.50254 3537 ft 176 kts 284°
2026-04-20 13:55 47.74858 -76.51429 3531 ft 176 kts 284°
2026-04-20 13:56 47.75086 -76.53214 3533 ft 175 kts 281°
2026-04-20 13:56 47.75272 -76.55005 3525 ft 175 kts 281°
2026-04-20 13:56 47.75594 -76.57333 3537 ft 174 kts 285°
2026-04-20 13:56 47.75890 -76.59085 3542 ft 176 kts 285°
2026-04-20 13:57 47.76079 -76.60278 3545 ft 175 kts 285°
2026-04-20 13:57 47.76348 -76.62045 3546 ft 175 kts 284°
2026-04-20 13:57 47.76616 -76.63814 3547 ft 176 kts 284°
2026-04-20 13:57 47.76887 -76.65582 3540 ft 176 kts 284°
2026-04-20 13:58 47.77157 -76.67351 3543 ft 176 kts 284°
2026-04-20 13:58 47.77426 -76.69120 3549 ft 175 kts 284°
2026-04-20 13:58 47.77692 -76.70864 3549 ft 175 kts 284°
2026-04-20 13:58 47.77965 -76.72656 3544 ft 175 kts 284°
2026-04-20 13:59 47.78229 -76.74393 3550 ft 174 kts 284°
2026-04-20 13:59 47.78495 -76.76153 3540 ft 174 kts 284°
2026-04-20 13:59 47.78763 -76.77916 3541 ft 175 kts 284°
2026-04-20 13:59 47.79029 -76.79677 3547 ft 175 kts 284°
2026-04-20 14:00 47.79296 -76.81443 3551 ft 175 kts 284°
2026-04-20 14:00 47.79564 -76.83221 3546 ft 176 kts 284°
2026-04-20 14:00 47.79834 -76.85003 3541 ft 176 kts 284°
2026-04-20 14:00 47.80102 -76.86774 3549 ft 175 kts 284°
2026-04-20 14:01 47.80368 -76.88546 3543 ft 176 kts 284°
2026-04-20 14:01 47.80633 -76.90320 3551 ft 175 kts 284°
2026-04-20 14:01 47.80897 -76.92071 3555 ft 175 kts 284°
2026-04-20 14:01 47.81164 -76.93846 3545 ft 175 kts 284°
2026-04-20 14:02 47.81429 -76.95614 3554 ft 175 kts 284°
2026-04-20 14:02 47.81694 -76.97387 3551 ft 175 kts 284°
2026-04-20 14:02 47.81957 -76.99157 3546 ft 176 kts 284°
2026-04-20 14:02 47.82222 -77.00927 3559 ft 175 kts 284°
2026-04-20 14:03 47.82488 -77.02694 3551 ft 175 kts 284°
2026-04-20 14:03 47.82752 -77.04467 3559 ft 175 kts 284°
2026-04-20 14:03 47.83015 -77.06240 3545 ft 176 kts 284°
2026-04-20 14:03 47.83277 -77.08010 3554 ft 174 kts 284°
2026-04-20 14:04 47.83539 -77.09769 3556 ft 174 kts 284°
2026-04-20 14:04 47.83803 -77.11529 3534 ft 174 kts 284°
2026-04-20 14:04 47.84057 -77.13253 3551 ft 173 kts 284°
2026-04-20 14:04 47.84318 -77.15034 3553 ft 175 kts 284°
2026-04-20 14:05 47.84576 -77.16785 3557 ft 175 kts 284°
2026-04-20 14:05 47.84836 -77.18550 3557 ft 174 kts 284°
2026-04-20 14:05 47.85100 -77.20313 3554 ft 174 kts 284°
2026-04-20 14:05 47.85361 -77.22074 3555 ft 174 kts 284°
2026-04-20 14:06 47.85618 -77.23837 3587 ft 174 kts 284°
2026-04-20 14:06 47.85877 -77.25606 3563 ft 175 kts 284°
2026-04-20 14:06 47.86137 -77.27370 3565 ft 174 kts 284°
2026-04-20 14:06 47.86398 -77.29141 3583 ft 177 kts 284°
2026-04-20 14:07 47.86664 -77.30971 3551 ft 183 kts 284°
2026-04-20 14:07 47.86929 -77.32792 3552 ft 178 kts 284°
2026-04-20 14:07 47.87194 -77.34583 3556 ft 176 kts 284°
2026-04-20 14:07 47.87456 -77.36374 3561 ft 176 kts 284°
2026-04-20 14:08 47.87713 -77.38150 3556 ft 175 kts 284°
2026-04-20 14:08 47.87971 -77.39917 3550 ft 174 kts 284°
2026-04-20 14:08 47.88231 -77.41686 3553 ft 174 kts 284°
2026-04-20 14:08 47.88482 -77.43425 3544 ft 174 kts 284°
2026-04-20 14:09 47.88740 -77.45213 3534 ft 174 kts 284°
2026-04-20 14:09 47.88992 -77.46955 3524 ft 174 kts 284°
2026-04-20 14:09 47.89248 -77.48719 3515 ft 174 kts 284°
2026-04-20 14:09 47.89505 -77.50495 3501 ft 174 kts 284°
2026-04-20 14:10 47.89759 -77.52255 3489 ft 174 kts 284°
2026-04-20 14:10 47.90013 -77.54008 3519 ft 168 kts 284°
2026-04-20 14:10 47.90133 -77.55666 3450 ft 160 kts 265°
2026-04-20 14:10 47.89858 -77.57242 3337 ft 154 kts 261°
2026-04-20 14:11 47.89673 -77.58801 3221 ft 151 kts 264°
2026-04-20 14:11 47.89498 -77.60313 3123 ft 149 kts 263°
2026-04-20 14:11 47.89306 -77.61834 3081 ft 149 kts 263°
2026-04-20 14:11 47.89116 -77.63308 2975 ft 141 kts 263°
2026-04-20 14:12 47.88934 -77.64721 2812 ft 137 kts 262°
2026-04-20 14:12 47.88757 -77.66102 2645 ft 134 kts 263°
2026-04-20 14:12 47.88581 -77.67461 2474 ft 134 kts 263°
2026-04-20 14:12 47.88407 -77.68814 2309 ft 132 kts 263°
2026-04-20 14:13 47.88235 -77.70156 2104 ft 132 kts 263°
2026-04-20 14:13 47.88115 -77.71484 1869 ft 127 kts 278°
2026-04-20 14:13 47.88438 -77.72685 1663 ft 125 kts 305°
2026-04-20 14:13 47.89077 -77.73517 1596 ft 118 kts 330°
2026-04-20 14:14 47.89847 -77.73833 1594 ft 114 kts 349°
2026-04-20 14:14 47.90680 -77.74050 1700 ft 129 kts 345°
2026-04-20 14:14 47.91599 -77.74336 2049 ft 136 kts 345°
2026-04-20 14:14 47.92531 -77.74599 2380 ft 136 kts 345°
2026-04-20 14:15 47.93444 -77.74865 2482 ft 137 kts 345°
2026-04-20 14:15 47.94402 -77.75138 2487 ft 142 kts 346°
2026-04-20 14:15 47.95365 -77.75414 2495 ft 143 kts 345°
2026-04-20 14:15 47.96346 -77.75695 2401 ft 142 kts 345°
2026-04-20 14:16 47.97272 -77.75955 2191 ft 131 kts 346°
2026-04-20 14:16 47.98124 -77.76195 1987 ft 119 kts 343°
2026-04-20 14:16 47.98910 -77.76420 1774 ft 111 kts 345°
2026-04-20 14:16 47.99638 -77.76628 1631 ft 102 kts 343°
2026-04-20 14:17 48.00326 -77.76838 1463 ft 100 kts 344°
2026-04-20 14:17 48.01007 -77.77023 1402 ft 99 kts 344°
2026-04-20 14:17 48.01683 -77.77219 1418 ft 99 kts 345°
2026-04-20 14:17 48.02353 -77.77411 1401 ft 97 kts 343°
2026-04-20 14:18 48.02989 -77.77596 1381 ft 87 kts 342°
2026-04-20 14:18 48.03569 -77.77757 1331 ft 85 kts 346°
2026-04-20 14:18 48.04155 -77.77921 1169 ft 86 kts 342°
2026-04-20 14:18 48.04690 -77.78078 1112 ft 71 kts 339°
2026-04-20 14:19 48.05032 -77.78193 1106 ft 24 kts 348°
2026-04-20 14:19 48.05218 -77.78245 1107 ft 25 kts 348°
2026-04-20 14:19 48.05314 -77.78348 1103 ft 14 kts 272°
2026-04-20 14:19 48.05299 -77.78508 1104 ft 17 kts 260°
2026-04-20 14:20 48.05230 -77.78578 1105 ft 21 kts 170°
2026-04-20 14:20 48.05080 -77.78535 1109 ft 18 kts 176°
2026-04-20 14:20 48.05061 -77.78631 1107 ft 8 kts 321°
2026-04-20 14:20 48.05073 -77.78661 1102 ft 1 kts 185°
2026-04-20 14:21 48.05072 -77.78661 1102 ft 0 kts 173°